GFSSGP_850_rhum_003.txt.gz
RH
51 74 100 99 91 67 52 37 34 37 40 38 38 65 58 60 66 75 86 89 88 89 87 77 75 76 74 68 67 68 63 60 56 58 49 46 46 47 41 41 45 46 50 52 55 61 64 62 67
75 82 79 55 39 78 70 34 40 35 37 37 38 44 46 76 64 78 85 83 82 74 80 89 79 84 82 76 74 69 64 59 55 54 48 41 40 47 43 41 44 49 50 52 57 61 61 62 62
68 64 61 45 28 40 42 36 29 31 32 33 36 42 54 79 63 68 77 75 74 82 88 74 80 84 81 78 74 68 64 53 52 54 48 44 44 47 45 46 50 46 47 54 58 59 56 59 58
56 47 41 15 16 22 33 27 28 28 31 33 39 43 52 50 56 62 68 73 80 89 94 72 78 82 78 73 67 66 63 59 56 55 49 49 46 50 46 49 42 41 48 57 60 57 58 56 58
46 34 29 14 16 18 23 25 26 29 28 30 37 46 50 54 58 64 65 74 78 86 86 80 77 79 76 65 61 60 59 57 53 50 52 48 48 51 50 49 41 47 56 65 65 58 65 49 51
37 20 22 15 16 16 20 24 24 25 29 33 39 46 54 59 61 63 67 77 80 86 81 82 76 76 72 64 58 56 54 53 52 52 48 47 49 53 55 45 50 53 62 66 65 70 68 58 52
29 30 20 14 17 16 18 21 20 24 30 30 40 42 55 58 60 63 77 79 80 79 87 91 91 74 70 57 56 56 58 55 51 46 48 49 51 54 46 46 54 62 66 70 69 70 67 66 57
21 17 14 20 15 15 15 19 20 23 28 31 34 42 52 57 58 70 74 79 78 73 85 82 87 95 95 65 59 62 59 58 55 50 46 47 55 51 45 53 65 58 61 75 64 60 60 61 62
16 22 16 16 27 15 15 16 21 25 29 30 32 38 49 57 56 62 80 82 77 79 83 81 81 89 95 95 70 62 60 57 60 60 58 57 81 85 75 82 63 66 68 67 62 58 59 74 73
16 42 18 11 18 15 15 15 20 23 28 29 34 38 53 58 54 56 71 84 74 73 72 69 80 93 91 76 82 93 86 85 86 84 75 79 79 83 74 81 68 65 60 64 68 65 71 73 73
12 29 18 13 13 15 15 16 18 20 25 28 34 41 52 56 54 54 64 63 60 60 62 80 80 87 84 85 83 78 79 78 78 86 87 80 81 84 82 83 82 78 70 91 83 79 82 79 82
12 15 14 13 14 15 14 16 17 18 19 25 32 38 48 53 54 52 54 54 55 61 63 73 87 84 83 79 80 77 70 69 70 79 93 84 83 80 77 86 82 78 89 72 88 79 81 90 92
10 10 11 11 14 14 16 16 15 17 20 25 32 38 44 48 52 52 51 51 53 58 62 66 76 88 90 82 75 72 73 69 68 73 84 85 77 80 79 78 84 82 80 84 79 80 82 86 86
9 9 9 10 11 14 16 16 18 18 21 26 34 38 41 44 47 50 53 53 54 58 62 66 77 93 93 89 95 84 76 76 69 71 72 84 82 89 88 87 86 83 75 80 79 86 88 84 77
9 10 10 11 11 13 15 18 17 18 24 26 33 37 38 41 43 48 52 55 58 61 65 69 76 87 94 95 96 89 76 72 74 68 78 85 90 91 80 86 84 77 76 82 82 88 79 69 60
9 9 12 11 10 12 15 20 18 20 22 24 30 36 38 39 40 45 49 52 57 61 68 73 69 75 88 96 97 90 76 82 73 72 74 88 92 94 98 86 84 79 87 86 86 81 82 67 60
10 12 12 14 11 14 16 21 18 22 20 22 26 31 36 39 41 44 47 52 54 64 70 77 76 74 84 91 91 88 79 80 85 82 82 92 89 97 97 82 75 87 84 88 91 80 75 63 63
14 12 12 17 12 15 17 21 18 20 22 18 23 26 33 36 39 42 48 50 55 61 71 81 81 83 87 86 84 86 83 92 88 86 88 90 96 95 97 85 87 90 88 86 93 84 73 74 75
10 11 11 10 10 14 17 16 18 20 21 20 20 23 28 32 36 40 47 50 54 60 71 80 86 87 91 95 95 90 89 80 75 70 88 100 94 95 86 85 89 93 86 90 75 80 69 67 67
9 10 12 10 11 12 15 17 14 20 21 21 21 22 24 28 31 40 46 49 52 61 69 78 87 89 90 95 90 81 74 70 64 70 76 89 87 90 90 93 81 83 84 86 91 90 77 62 69
10 10 11 11 16 15 14 18 15 15 20 23 21 21 23 25 27 36 43 48 52 59 68 76 83 86 86 85 85 84 82 71 76 69 83 90 93 94 92 91 72 94 81 54 84 83 80 66 72
11 9 10 10 17 22 13 21 17 14 16 21 22 22 22 24 26 30 42 48 50 55 67 73 80 82 88 86 82 80 78 69 59 59 61 73 96 92 96 92 91 94 62 69 76 79 70 70 62
9 7 10 10 13 27 14 16 17 13 15 17 20 22 22 22 26 29 36 44 48 51 60 72 80 84 85 87 81 81 78 60 60 55 63 76 91 90 84 88 93 95 64 71 68 87 61 84 72
7 8 10 10 12 17 15 17 18 18 14 13 14 20 23 23 24 30 33 39 45 49 56 65 78 82 82 89 79 77 79 67 57 59 71 73 74 85 86 83 95 93 66 84 87 93 92 78 79
7 10 14 16 16 16 12 17 29 13 10 11 10 12 18 23 24 26 34 37 43 48 53 60 71 81 82 91 87 78 83 77 78 77 75 68 64 67 82 86 86 87 70 84 87 85 91 89 86
8 9 13 22 18 15 12 16 13 10 9 8 9 8 12 20 24 24 30 37 42 47 53 59 66 80 76 86 83 86 84 82 74 78 70 72 67 67 73 92 90 90 84 89 88 77 82 79 83
7 9 8 11 11 13 11 11 9 10 10 9 9 8 8 15 21 24 26 34 39 44 50 57 63 70 73 80 83 81 86 82 72 70 71 78 73 67 75 87 70 78 81 89 87 74 78 68 81
5 6 10 10 21 19 12 12 12 12 11 9 9 8 9 11 20 22 24 30 36 41 47 56 63 70 69 77 80 85 91 90 86 80 81 73 75 72 71 86 46 37 53 74 46 77 77 77 76
6 6 8 9 11 15 16 13 8 10 11 10 9 8 8 11 17 22 23 26 32 36 41 49 57 65 69 72 73 76 84 88 88 86 80 82 78 88 52 10 14 28 68 80 71 80 72 79 83
5 6 6 12 18 12 12 11 7 7 8 8 8 8 8 10 15 19 21 23 28 33 35 40 47 54 66 69 69 74 77 82 87 86 86 68 38 24 14 7 13 50 40 63 44 84 76 76 78

GFSSGP_850_rhum_006.txt.gz
RH
57 69 89 90 87 64 64 48 39 76 40 43 47 62 59 61 66 84 93 94 96 98 84 79 74 72 64 64 58 52 49 53 55 47 50 48 46 42 43 44 47 50 54 57 60 60 62 61 72
74 88 92 90 95 83 63 43 56 43 34 48 55 57 58 60 72 81 92 90 87 87 88 74 75 68 67 67 61 55 56 61 56 47 45 45 46 41 40 44 45 48 53 57 59 58 57 57 62
76 80 75 74 53 74 76 79 36 33 42 46 51 51 60 64 74 79 82 79 75 83 84 74 76 71 68 67 64 60 61 59 56 48 46 44 43 41 41 43 39 43 52 57 59 57 57 53 59
82 70 65 58 37 46 41 43 23 27 37 37 42 54 58 60 65 70 74 77 77 87 81 79 79 79 75 71 66 64 59 57 55 51 48 45 40 41 44 40 46 47 55 62 60 63 59 48 59
73 55 60 38 20 29 32 24 29 29 34 38 41 46 50 55 61 66 71 76 79 88 73 76 77 74 73 68 66 67 61 55 58 51 49 43 43 44 47 39 49 49 59 58 62 67 58 44 57
85 49 55 16 16 17 19 23 29 27 37 38 41 52 58 55 57 68 71 76 80 82 88 73 77 75 68 65 64 63 61 58 54 50 48 40 44 49 50 42 51 55 56 62 62 66 67 56 58
78 59 27 22 15 17 17 18 22 23 28 34 43 56 60 54 60 68 71 77 77 84 94 76 77 76 66 62 60 57 54 53 50 47 40 42 48 54 44 51 54 52 60 67 61 60 60 60 60
49 40 26 20 15 14 15 16 18 20 33 32 46 46 56 59 67 69 71 75 79 76 87 97 85 71 62 58 54 53 50 47 42 39 41 45 58 62 64 58 64 59 62 64 57 52 55 72 71
20 20 24 21 16 13 14 14 19 25 25 36 38 42 49 57 66 68 73 77 76 77 81 86 92 78 80 60 58 58 55 52 45 41 42 58 65 78 94 83 70 61 58 59 54 52 71 72 74
16 25 25 22 16 13 13 14 17 20 24 26 34 40 45 53 58 68 69 70 81 68 77 82 82 84 76 90 61 59 55 55 57 58 56 79 88 80 86 79 80 68 63 82 73 77 85 80 77
17 27 19 17 18 16 13 14 15 20 22 25 40 44 45 48 57 67 68 65 65 72 67 69 68 77 82 82 65 68 70 81 75 85 86 80 79 80 82 86 58 90 71 71 86 80 84 71 67
13 15 16 14 12 16 12 14 15 18 19 25 34 45 46 44 46 54 59 59 58 60 68 82 69 74 82 76 70 72 77 72 74 74 68 75 76 79 83 95 79 85 81 92 84 82 76 78 75
9 13 13 10 12 13 13 14 15 15 20 24 30 42 46 44 42 48 49 51 52 52 72 74 68 71 76 76 73 68 72 66 70 74 77 66 83 81 77 80 76 77 84 79 78 70 75 69 67
8 8 9 9 10 11 15 14 14 15 18 23 29 37 43 45 43 43 44 44 50 52 55 64 77 75 84 72 75 70 60 74 64 72 68 70 71 80 79 85 71 64 75 70 73 75 72 71 75
8 9 8 9 9 11 13 16 16 16 16 22 28 32 37 41 44 44 42 44 47 51 56 63 76 79 70 82 81 77 77 66 67 61 72 74 68 72 82 80 73 75 73 71 74 79 76 78 63
8 8 11 9 9 10 13 19 13 17 17 20 27 30 33 37 39 44 46 46 48 53 57 62 65 82 79 79 82 76 73 68 67 71 72 75 76 72 76 76 86 79 82 70 85 85 78 74 63
9 12 11 10 10 11 13 24 18 17 18 18 23 28 30 34 36 41 45 48 50 54 59 64 67 68 79 80 93 85 80 72 73 71 79 80 81 86 81 83 86 86 78 73 81 82 81 67 64
11 11 10 11 12 10 14 42 36 25 17 18 20 24 29 31 34 38 42 46 50 56 61 66 70 70 74 79 76 85 74 76 73 78 78 85 76 76 84 82 86 76 70 81 81 80 76 65 66
8 10 10 10 12 12 17 54 60 34 21 17 20 20 24 29 32 35 41 44 48 54 61 67 73 74 80 88 89 86 79 72 72 64 66 79 75 77 70 72 77 81 74 90 85 67 50 69 64
10 10 11 9 12 13 13 35 37 28 19 18 17 19 21 23 28 34 40 42 47 52 59 67 75 78 77 86 87 84 72 64 71 77 73 62 77 71 71 74 77 85 84 80 85 63 47 66 64
10 10 11 10 11 11 12 15 19 19 16 16 17 18 19 22 24 33 37 42 45 51 57 63 72 81 81 81 86 80 87 88 78 73 71 71 80 74 90 89 80 80 85 64 70 75 57 69 74
11 8 9 9 14 19 14 22 24 19 20 19 17 18 18 20 23 26 36 42 45 49 53 63 71 76 80 78 88 74 76 83 73 66 65 61 69 76 87 68 75 90 70 70 67 62 47 56 71
9 8 8 9 11 18 19 22 19 20 21 21 18 18 18 19 21 24 34 39 44 48 56 62 69 76 78 77 86 85 81 65 57 54 57 63 74 84 88 86 84 78 43 63 59 62 37 73 64
6 8 8 8 10 17 15 20 19 18 21 17 17 18 18 19 21 23 28 36 42 46 56 61 71 82 78 82 78 83 85 69 61 63 63 67 78 78 77 90 74 76 41 55 50 43 39 69 76
6 8 14 15 15 16 12 20 22 17 16 14 24 21 18 19 20 22 26 35 42 46 52 63 68 80 78 80 80 74 84 61 66 60 64 73 71 74 78 71 71 70 48 53 47 44 72 54 56
6 7 13 22 18 15 12 15 15 15 14 15 19 28 16 19 20 22 26 31 41 45 48 58 70 70 76 76 77 75 69 59 58 72 61 72 67 65 70 72 68 66 61 47 38 38 48 65 67
6 8 7 11 10 13 11 10 8 9 14 17 13 10 11 17 20 21 24 31 37 44 47 54 65 71 76 76 81 72 65 58 55 72 72 75 65 64 65 66 64 54 55 59 60 47 71 80 82
5 5 8 9 19 21 13 15 14 13 14 16 16 14 9 10 18 21 23 30 35 42 47 53 60 69 79 78 77 77 66 62 54 68 69 68 78 68 68 66 61 54 54 67 66 50 73 62 56
6 6 6 7 10 15 19 15 10 16 15 15 13 10 8 8 17 18 22 25 34 41 47 52 59 68 83 87 82 74 69 46 60 70 73 70 69 74 68 66 62 51 55 65 54 53 63 70 69
6 7 7 10 17 11 13 13 7 12 11 10 10 9 8 8 10 15 20 24 30 38 44 50 57 66 79 84 82 69 53 57 50 63 70 70 74 73 70 67 56 55 65 48 43 31 55 69 62

GFSSGP_850_rhum_009.txt.gz
RH
59 76 82 96 95 87 82 63 56 51 55 48 50 62 71 70 66 90 91 85 83 86 80 78 76 66 58 53 43 44 52 51 47 49 46 41 41 44 44 46 47 54 58 58 58 56 57 63 66
63 75 85 84 90 90 89 62 58 50 53 54 58 58 66 77 83 89 91 91 80 75 76 75 68 63 58 48 42 47 53 49 47 47 44 40 40 42 42 40 44 51 56 58 55 53 52 57 59
66 85 80 96 83 79 86 68 49 59 59 52 52 56 68 86 89 89 86 85 74 70 72 72 66 64 60 52 48 48 53 48 47 41 41 45 41 41 37 39 42 52 59 61 56 56 46 54 57
84 97 85 85 57 60 58 55 69 52 51 50 56 65 73 79 79 76 81 83 84 74 70 69 65 66 65 59 53 50 53 53 48 45 44 44 41 41 38 44 46 56 66 64 64 50 41 54 54
87 87 90 76 46 45 43 54 64 44 44 51 58 67 71 70 75 80 81 84 88 79 76 75 71 67 65 64 57 53 54 54 54 48 47 44 42 44 37 46 52 60 60 62 64 62 47 55 58
71 77 72 42 35 34 35 35 40 41 46 51 57 60 67 72 76 73 78 79 74 74 76 75 76 74 69 64 61 54 52 54 56 50 48 43 44 47 40 50 57 60 64 63 59 60 57 55 54
67 70 47 38 32 26 38 36 42 42 49 50 58 64 67 72 66 73 71 78 77 70 74 75 71 70 66 63 62 59 56 56 54 50 44 41 49 46 45 56 56 57 61 60 55 56 71 62 69
41 55 40 39 33 22 24 24 46 38 45 54 56 59 62 70 72 69 72 80 80 80 72 74 68 63 62 60 59 57 55 52 50 48 41 45 60 64 74 74 70 63 61 54 63 73 77 76 69
40 54 63 44 27 19 18 30 34 36 51 52 52 56 66 66 69 70 78 79 86 79 70 71 67 60 57 55 52 50 48 47 43 42 43 58 62 77 91 83 81 68 61 59 61 78 80 76 76
22 40 34 25 21 17 17 29 34 37 46 56 55 62 61 68 71 67 69 80 82 82 82 70 65 59 53 51 51 52 50 48 44 44 56 77 68 78 93 84 74 68 64 76 74 76 78 73 70
17 27 23 19 18 14 16 17 21 33 43 48 55 65 64 69 69 64 68 78 72 74 84 87 74 71 63 54 55 53 51 52 54 51 73 76 76 77 55 56 58 76 75 73 73 76 75 77 65
18 16 17 18 17 16 16 15 22 22 36 42 53 64 66 69 65 62 70 69 69 70 76 76 68 75 85 80 71 59 67 68 69 72 67 73 83 76 71 52 68 80 74 70 76 75 78 69 68
16 15 14 15 18 14 14 16 21 22 37 43 46 53 62 65 62 63 59 68 57 68 76 74 68 63 80 76 66 66 72 64 71 66 73 67 69 74 71 68 79 81 79 71 74 79 71 63 69
12 12 14 13 12 16 17 15 19 26 40 44 45 45 52 59 60 62 53 63 62 71 67 67 66 62 74 74 69 68 76 76 76 81 77 74 68 63 76 79 77 70 71 79 67 69 67 65 64
10 12 10 10 10 13 17 35 19 25 31 44 47 47 46 50 58 54 53 53 61 64 61 65 65 67 63 73 76 75 71 66 63 72 70 73 74 71 66 69 73 73 76 74 65 66 74 71 62
12 11 13 11 11 10 18 40 25 21 30 38 43 46 47 45 45 47 44 53 54 54 64 64 66 69 68 68 76 70 70 64 60 66 69 80 76 72 68 73 76 79 79 80 74 66 73 72 66
12 14 14 12 10 14 17 31 18 17 28 31 37 40 44 46 44 45 44 46 52 52 55 61 67 71 71 68 66 70 71 66 68 63 72 78 77 74 71 79 80 86 79 87 76 73 82 70 47
16 14 12 14 13 15 26 30 25 19 21 29 32 34 38 41 43 44 44 45 46 52 54 59 66 67 71 70 61 68 69 67 64 67 70 78 72 77 62 78 77 78 88 73 72 65 63 58 66
11 12 12 11 13 17 32 36 31 21 22 26 31 32 34 37 37 42 45 46 48 50 56 57 62 66 75 74 76 75 72 76 75 70 69 67 75 70 77 76 76 73 82 70 78 66 48 67 63
10 12 13 11 13 17 34 33 25 20 20 21 25 31 33 35 35 38 42 46 48 51 53 57 60 63 78 78 77 76 69 78 70 69 62 68 68 72 66 75 69 75 76 79 75 60 38 66 65
11 13 13 13 12 15 32 43 38 26 21 22 24 26 30 32 35 35 40 42 46 49 53 56 59 64 72 81 83 85 78 75 72 71 71 82 76 76 65 76 74 74 82 81 69 59 46 69 66
15 10 11 11 13 21 20 36 46 33 36 37 29 22 26 30 32 33 38 41 45 46 48 53 57 62 69 76 81 82 70 65 70 75 71 75 69 71 72 68 74 80 82 76 64 55 31 63 68
12 10 11 11 13 24 21 26 32 34 41 44 32 21 22 24 28 33 36 38 42 45 46 50 54 61 66 73 76 77 74 67 72 77 76 65 67 78 75 77 76 70 80 61 34 35 24 59 69
6 10 11 12 14 19 23 23 30 31 40 43 25 20 20 21 24 25 31 36 40 43 47 49 53 58 63 70 76 74 75 67 71 71 62 68 73 72 64 80 76 64 62 39 38 39 25 40 64
6 10 16 19 20 23 16 24 31 19 20 21 22 20 20 20 23 25 34 39 40 43 47 50 52 55 61 69 72 73 80 73 48 52 58 63 70 72 73 67 58 56 56 28 32 29 25 33 53
7 8 13 26 24 20 16 18 18 16 18 17 20 20 20 19 22 24 24 34 40 42 46 50 52 54 60 68 72 74 75 69 52 66 74 69 64 67 72 63 59 53 62 48 25 28 26 31 27
8 9 7 12 17 23 16 14 12 17 17 17 18 20 18 18 20 24 24 30 38 42 43 47 55 56 58 64 71 67 76 69 58 61 73 79 71 69 64 66 68 70 66 58 28 27 31 32 48
6 7 10 9 16 21 16 19 20 18 20 22 23 21 17 16 20 23 25 27 34 38 39 44 51 56 57 62 68 64 62 66 61 56 64 74 75 66 63 64 65 68 67 55 31 30 38 48 48
8 8 8 10 10 16 22 18 14 18 24 24 20 18 18 15 17 22 23 25 29 39 40 43 50 58 62 59 63 66 56 63 63 55 54 65 75 76 68 65 66 67 65 41 24 30 39 48 56
7 10 8 15 16 18 14 14 12 9 18 19 18 16 11 12 19 23 23 30 34 38 42 43 47 52 60 60 61 61 59 55 66 54 53 55 66 71 73 74 70 65 58 49 26 22 41 36 52

GFSSGP_850_rhum_015.txt.gz
RH
75 79 89 96 93 92 91 72 70 57 58 61 55 59 82 94 79 87 88 87 84 82 83 85 80 73 59 57 58 55 49 42 43 43 43 42 46 47 50 54 57 57 56 56 55 62 70 70 71
78 87 91 73 91 94 82 70 63 62 65 61 65 71 79 90 95 90 89 85 81 79 81 83 75 65 51 56 55 51 43 44 40 40 38 43 42 41 50 56 60 58 59 50 49 55 61 69 73
73 81 80 95 93 89 86 68 63 59 59 56 70 76 82 97 96 88 79 81 80 79 81 77 64 57 48 52 52 46 42 38 37 37 42 42 42 45 50 59 62 62 58 42 49 57 60 66 75
88 79 79 93 74 65 73 72 59 57 55 57 70 80 88 88 87 79 77 78 76 77 73 69 64 46 44 50 48 44 42 41 41 41 42 40 39 50 52 60 63 64 64 57 53 60 63 72 74
66 72 93 92 61 59 61 53 66 59 55 65 69 84 94 89 75 76 74 73 71 72 67 60 58 46 43 48 48 46 42 39 40 41 42 43 42 54 58 62 68 63 62 55 59 61 68 80 76
78 87 76 69 49 54 56 57 63 56 61 74 78 78 90 80 72 69 66 67 68 67 64 61 55 45 43 49 50 47 43 39 42 41 44 49 46 58 58 61 65 60 57 61 58 62 80 82 79
78 84 65 48 52 60 56 59 71 60 64 70 70 84 94 80 72 65 65 67 68 66 62 62 58 51 44 45 49 49 46 43 44 44 48 51 50 59 71 65 65 57 58 68 71 74 78 80 84
75 72 55 48 56 58 54 68 58 62 62 67 66 85 91 78 70 67 71 72 69 68 63 63 64 59 53 47 46 47 47 48 48 46 48 52 71 75 70 66 64 57 58 74 77 80 83 78 80
65 72 62 47 46 47 49 58 57 56 66 60 62 57 68 74 74 82 86 88 80 78 69 66 65 64 61 55 49 48 47 51 49 46 47 65 73 74 72 72 65 58 67 73 76 74 75 71 76
68 68 51 35 33 48 48 51 56 61 63 65 65 68 73 83 82 86 89 91 86 77 78 76 70 66 63 61 55 51 51 50 46 42 48 66 69 73 66 61 67 72 64 74 76 76 72 73 75
59 64 39 32 26 41 46 50 53 61 64 67 72 74 84 85 85 85 84 80 71 70 77 72 69 67 62 58 54 52 50 47 43 42 66 70 72 64 64 58 70 74 71 71 71 72 71 68 67
36 40 41 30 21 42 46 48 53 55 51 56 43 56 76 87 87 79 79 79 77 74 71 70 64 59 56 52 48 45 42 41 39 44 68 66 73 72 70 71 71 74 70 67 70 66 71 67 65
34 28 20 19 18 29 43 48 50 54 52 55 62 68 75 82 80 77 70 70 71 68 68 66 59 55 52 49 45 46 45 43 41 52 62 67 69 74 72 73 71 72 72 66 66 66 68 67 69
16 17 16 15 13 30 44 46 46 52 56 67 67 74 78 72 73 74 69 65 71 64 62 61 56 50 49 46 53 48 47 54 62 69 74 72 70 76 75 71 72 74 68 72 68 72 71 71 67
14 17 14 14 12 30 36 46 52 49 61 70 73 74 75 71 71 70 65 62 63 67 66 58 54 50 54 50 61 54 58 69 74 72 76 76 76 75 78 76 71 73 71 68 72 74 78 72 66
13 14 17 13 12 14 31 44 42 56 66 68 71 74 76 76 69 62 61 58 55 59 71 64 58 58 56 62 65 58 70 73 78 75 80 80 80 79 81 78 70 75 76 81 77 84 74 76 70
18 22 18 16 12 25 26 39 49 58 63 67 69 72 75 77 75 63 62 59 56 61 60 67 66 64 64 67 67 64 72 76 74 73 76 74 77 81 82 80 76 71 73 75 79 79 76 78 63
21 17 16 16 13 24 29 37 51 57 61 64 66 68 72 76 64 59 60 59 59 58 61 58 67 66 67 65 62 68 70 76 74 74 72 72 73 77 83 77 70 70 67 73 74 73 76 56 60
15 15 17 15 13 22 29 36 55 54 57 63 65 66 70 71 57 59 58 57 55 58 60 62 67 70 70 69 72 73 71 83 82 74 69 71 69 75 75 76 73 76 70 75 73 74 70 48 66
16 16 16 14 13 18 28 34 50 51 53 57 62 65 68 68 71 62 59 58 51 52 58 60 64 67 69 68 67 67 68 70 75 75 69 68 76 74 73 76 76 73 73 74 74 74 74 51 64
17 18 15 15 15 16 32 39 40 51 48 50 52 55 60 61 65 65 58 58 55 55 55 56 58 64 67 66 70 71 73 71 71 75 74 71 76 76 75 74 75 69 72 69 76 77 77 45 62
23 15 13 13 16 20 29 47 44 42 54 50 50 52 52 53 55 55 57 56 52 50 51 54 56 60 65 65 69 69 69 68 64 66 67 68 75 74 71 74 76 73 71 66 75 74 73 49 66
17 13 15 16 17 18 20 34 34 38 45 44 43 46 50 51 50 52 50 49 49 46 46 49 53 55 59 66 67 65 66 71 67 58 61 68 73 71 71 80 82 77 74 66 66 74 58 41 57
13 13 13 18 22 27 18 25 22 50 35 34 33 38 42 46 47 45 44 49 48 48 46 46 48 52 56 60 64 65 65 63 68 65 66 68 71 71 74 79 81 81 78 65 62 53 40 31 46
15 17 24 21 27 23 18 30 19 26 32 27 30 30 34 37 42 41 46 48 54 52 48 46 47 49 53 57 58 61 63 64 60 64 63 61 68 72 72 75 77 78 66 67 68 51 33 36 30
18 17 29 24 30 21 21 29 23 19 22 26 23 26 28 33 36 39 37 42 44 48 50 47 46 48 51 54 56 57 60 61 66 64 63 60 68 69 69 68 74 69 66 69 62 54 29 31 27
15 17 13 16 23 23 24 20 16 16 20 27 26 24 26 29 32 35 36 36 38 46 45 44 43 44 46 48 52 56 58 61 63 65 61 63 68 71 65 67 68 70 71 71 63 54 26 24 24
12 12 14 21 21 22 20 21 20 18 18 28 31 27 24 29 29 30 33 34 34 38 40 40 39 38 38 43 47 51 53 57 61 64 53 59 63 72 70 62 65 72 74 68 60 55 45 23 24
15 14 14 16 18 17 18 15 13 17 19 21 28 27 25 26 26 25 26 31 32 36 44 40 43 38 41 42 44 49 51 55 62 65 54 52 53 61 64 60 67 71 74 65 69 67 64 35 23
10 12 16 17 18 18 14 14 11 13 14 19 17 18 16 15 21 25 23 26 35 34 41 43 38 38 35 40 42 43 46 51 57 63 55 45 50 54 66 69 70 73 72 64 66 67 70 60 28

GFSSGP_850_rhum_021.txt.gz
RH
82 84 93 93 95 83 78 68 58 53 55 60 56 59 60 85 73 73 99 94 90 88 89 88 84 75 74 61 67 68 61 52 45 46 50 52 55 56 57 67 78 73 68 68 69 69 68 66 67
94 96 97 90 80 75 70 61 57 54 63 64 67 70 71 88 97 98 99 94 85 89 84 84 78 69 52 59 57 56 51 46 46 49 47 50 56 58 61 61 58 65 71 68 67 70 70 70 75
94 94 92 86 66 61 66 59 57 59 61 59 68 75 78 91 98 99 98 97 90 82 80 80 69 51 50 54 52 50 46 47 46 46 44 47 56 64 66 66 59 86 80 78 66 65 70 74 73
89 98 90 88 58 54 51 54 54 59 62 67 68 75 90 97 98 99 90 85 88 78 79 78 59 51 55 54 48 48 45 44 44 41 48 50 60 65 71 75 79 82 77 61 64 67 68 71 80
94 80 73 66 48 52 51 53 56 52 59 63 67 80 94 100 94 86 87 89 80 89 79 71 58 57 57 51 47 44 40 41 42 40 48 54 62 69 74 78 67 68 67 65 73 80 77 78 80
77 76 58 51 44 49 47 54 53 53 62 70 70 74 92 93 88 93 87 86 83 90 96 78 54 58 53 47 46 40 41 41 42 44 51 58 63 68 72 68 68 66 64 71 74 72 74 73 73
71 57 53 48 44 47 50 55 53 55 60 61 67 70 99 99 95 80 78 79 81 90 95 94 52 54 51 47 44 41 41 41 44 48 49 59 66 67 67 62 64 66 68 76 72 70 69 73 70
73 61 54 43 45 47 52 51 57 56 59 64 64 70 92 99 83 79 76 89 85 95 90 84 68 48 48 47 45 40 41 44 44 50 48 60 65 70 65 61 63 73 71 71 75 70 69 70 73
79 64 55 41 44 41 55 52 58 60 63 61 66 70 74 96 90 88 88 95 88 94 72 84 71 42 43 45 46 43 42 44 47 48 53 67 69 69 67 62 60 74 80 82 79 70 73 70 61
70 64 45 35 33 27 49 48 56 58 58 57 66 76 75 95 92 94 92 93 91 86 73 84 62 41 41 45 46 45 45 47 49 45 57 74 76 75 70 65 60 69 73 77 75 74 72 70 74
73 58 44 33 31 29 38 49 53 54 56 52 62 78 85 92 93 88 88 89 82 67 62 60 48 43 39 40 44 43 44 46 50 47 49 70 75 74 64 65 70 64 73 74 72 71 69 64 63
67 55 47 34 31 33 39 48 49 54 49 50 62 73 80 85 84 82 82 84 71 62 56 58 54 48 44 41 42 41 43 46 51 47 45 71 72 71 66 63 71 65 71 74 69 67 69 71 61
62 41 36 33 31 26 31 45 43 52 51 54 66 74 75 79 81 82 82 83 62 60 57 58 59 59 58 55 53 48 46 50 50 46 48 69 76 76 71 69 70 71 68 69 66 66 70 74 72
33 30 18 21 22 18 28 33 46 44 58 63 71 72 72 75 77 85 87 67 63 65 67 67 65 63 60 59 57 54 52 51 47 41 48 70 75 73 72 72 73 74 73 71 71 69 68 64 65
19 16 14 13 14 15 23 44 45 47 58 64 70 74 74 77 79 83 70 61 61 63 66 68 67 66 63 61 57 55 51 45 42 41 61 70 72 72 77 76 77 79 79 74 77 76 77 62 68
16 16 15 12 12 17 23 18 34 52 56 62 67 73 76 79 80 84 83 75 63 61 63 64 68 63 59 57 54 52 46 46 45 44 67 73 72 73 74 80 82 79 78 79 78 79 80 78 75
15 17 18 15 12 23 30 19 23 50 52 58 64 67 72 75 81 84 84 71 62 62 60 58 65 63 54 52 50 47 48 51 52 57 66 70 73 78 79 78 83 81 80 80 83 84 81 78 74
17 17 16 17 13 16 26 27 31 47 50 54 60 63 68 70 73 79 82 82 65 64 58 53 57 59 54 49 48 47 55 56 56 70 73 78 76 77 79 70 77 84 82 82 84 86 80 74 49
13 14 15 13 12 18 22 26 31 46 50 51 57 60 63 65 65 74 79 84 78 65 60 54 54 50 52 49 47 49 53 55 63 68 73 74 68 73 74 77 82 85 84 85 85 86 77 72 53
14 14 15 14 12 13 15 18 18 38 48 49 55 58 60 62 66 73 78 82 84 62 60 59 56 49 46 48 47 53 52 61 58 68 67 75 73 70 70 73 81 85 88 83 86 84 76 77 55
15 13 13 15 13 12 15 16 20 38 43 48 53 56 58 57 64 68 74 77 82 67 60 58 53 52 48 57 59 63 65 68 62 66 69 72 71 72 68 70 78 84 86 82 81 83 81 82 58
14 12 12 15 16 18 17 20 25 24 43 46 50 55 58 56 62 64 70 75 77 56 54 57 54 55 54 58 62 65 66 66 60 62 66 67 73 73 72 72 76 82 84 83 81 76 78 83 71
13 12 13 14 16 16 15 20 17 34 39 45 45 49 54 54 59 63 66 62 54 64 53 52 51 54 55 55 58 61 66 66 63 62 63 67 68 72 78 72 74 77 79 83 80 74 71 79 76
14 16 16 18 16 22 17 18 17 19 25 31 39 46 51 54 54 61 60 63 67 65 60 56 50 50 55 56 57 59 62 66 66 64 60 66 67 70 73 78 74 74 76 82 86 77 68 72 62
15 15 20 20 21 21 14 18 18 15 21 16 29 40 46 52 54 55 63 66 55 59 50 51 54 48 50 54 57 59 60 61 61 62 62 64 67 64 60 67 70 70 72 80 85 79 67 61 43
17 14 14 21 16 15 19 20 16 13 12 19 20 28 37 47 51 53 54 56 43 44 45 46 49 49 49 49 51 54 57 60 60 60 61 62 62 59 52 58 64 65 73 79 80 75 65 55 44
17 19 11 14 19 16 13 13 14 14 13 16 19 21 28 34 42 48 52 50 43 39 39 38 40 44 48 48 48 50 53 56 58 58 58 61 63 63 53 56 61 63 68 70 75 69 56 50 50
14 12 18 14 18 18 14 18 13 18 15 16 18 18 21 24 32 39 48 52 46 37 34 36 35 33 33 37 45 47 47 49 54 57 56 58 61 65 64 58 59 62 66 65 70 72 63 48 42
16 16 14 13 14 12 12 10 15 17 20 17 16 16 17 21 24 28 37 45 46 51 52 40 38 35 34 32 35 38 40 43 47 53 53 53 58 63 67 64 57 59 64 63 67 74 70 59 44
13 14 15 16 24 15 12 10 11 11 14 17 13 15 18 24 23 15 29 37 44 46 46 46 40 41 35 33 34 35 37 39 42 45 47 48 52 59 64 66 62 57 65 61 64 70 72 60 43

GFSSGP_850_rhum_024.txt.gz
RH
78 93 99 96 98 70 60 53 41 41 42 43 50 46 47 78 54 80 99 94 96 92 93 82 67 67 76 75 70 59 65 58 48 50 50 56 62 64 82 79 69 69 68 69 69 72 70 70 73
97 99 97 71 78 66 57 44 41 39 45 47 53 52 56 77 80 98 100 97 98 99 96 96 77 74 72 70 63 64 59 49 48 49 51 59 72 82 60 60 66 74 63 62 69 72 72 73 75
99 98 74 65 47 50 51 44 41 42 47 45 51 56 57 70 86 90 95 100 96 97 94 92 73 71 70 65 62 58 48 46 48 46 52 69 67 65 72 83 82 79 82 63 64 69 72 72 74
98 96 78 69 40 38 39 40 40 43 47 48 50 55 74 82 86 93 98 90 89 91 87 71 67 66 61 56 56 50 47 47 45 48 53 62 66 72 75 77 70 70 62 62 66 68 71 78 78
86 71 63 52 35 36 36 41 43 39 43 47 49 58 82 87 86 93 92 84 79 82 89 78 58 52 54 53 51 47 46 45 44 53 56 64 69 73 75 76 70 63 62 74 76 74 75 69 68
67 54 43 30 30 35 34 39 40 40 44 51 51 63 86 89 86 87 82 78 76 79 82 89 56 53 55 61 49 43 42 44 43 52 58 64 68 68 73 71 69 58 71 74 75 75 72 72 74
57 38 33 29 30 33 35 38 36 38 44 45 51 54 79 82 81 78 77 78 76 79 73 85 86 63 61 66 43 41 43 44 46 51 58 61 64 65 63 64 64 65 75 74 72 73 74 72 69
51 39 32 27 29 36 35 38 39 40 44 49 51 56 73 81 80 78 79 81 78 80 72 78 83 89 94 81 43 43 44 44 48 48 55 64 72 71 67 67 71 73 71 74 68 68 70 68 67
58 40 30 27 28 30 36 37 43 45 47 46 49 48 63 76 77 77 81 82 88 80 72 72 74 84 89 91 54 42 45 44 47 56 60 76 89 94 93 75 68 71 79 74 68 66 67 68 62
46 35 26 22 21 22 28 34 42 41 42 42 51 53 69 75 75 74 76 77 83 74 73 68 71 78 84 78 82 83 82 80 82 82 83 90 91 96 95 80 66 73 73 74 71 69 73 67 55
38 34 24 22 22 22 23 34 38 35 37 39 50 62 70 72 72 70 70 70 69 72 71 72 76 83 83 78 84 82 80 79 86 77 72 94 98 93 88 84 89 85 80 87 83 88 78 66 70
38 32 30 24 23 21 19 28 35 35 32 37 49 59 65 68 67 66 65 65 66 73 74 75 81 88 84 81 80 78 75 78 78 82 46 81 88 93 94 84 90 73 80 85 80 79 83 82 72
38 26 25 25 23 21 17 24 27 34 38 38 50 58 61 62 62 61 61 63 64 71 74 76 86 93 91 92 79 73 78 77 75 84 70 90 90 92 92 88 88 83 82 81 82 81 76 72 86
25 28 24 15 15 16 14 19 27 30 39 44 51 54 56 58 59 60 61 63 66 69 73 78 87 94 92 92 92 87 86 80 83 78 76 65 92 88 91 90 87 87 87 92 79 81 90 62 73
24 22 14 12 12 13 13 16 25 27 41 44 48 50 52 55 56 59 60 63 67 70 73 78 89 94 94 94 88 87 84 82 79 75 57 63 71 74 77 90 88 84 87 80 90 83 88 77 68
15 14 16 13 12 12 14 18 20 29 39 42 46 49 51 53 54 58 60 62 66 72 80 86 84 89 94 94 90 88 83 81 75 70 74 66 68 68 76 88 79 88 74 92 91 92 85 72 67
12 16 16 15 12 13 16 17 15 28 34 37 44 47 50 53 54 57 61 64 65 78 85 92 92 90 95 95 94 85 86 81 73 71 73 75 72 74 77 81 90 81 91 87 92 92 85 71 65
16 15 14 15 13 12 14 17 14 23 28 32 41 45 48 50 54 56 62 63 68 76 86 94 93 95 95 96 94 89 80 79 77 75 75 82 70 74 77 92 81 78 93 94 85 85 83 75 58
11 13 14 13 12 14 15 14 14 20 28 28 37 43 46 48 50 54 61 64 69 74 85 93 94 95 88 89 89 82 74 77 76 75 82 68 70 75 71 92 86 85 90 94 80 90 86 73 68
12 12 13 12 11 12 13 14 13 16 26 28 34 40 43 45 48 54 59 61 63 72 82 92 92 85 58 77 76 76 74 72 75 76 84 66 74 67 69 74 77 86 92 78 83 74 77 76 64
12 13 12 13 12 11 13 15 14 11 16 24 29 35 39 43 46 50 55 57 60 66 80 88 88 84 53 87 88 83 78 78 78 78 82 78 66 70 70 68 72 88 84 89 80 82 83 68 69
13 10 10 11 13 18 12 19 15 13 16 18 24 29 35 39 44 46 51 54 57 63 74 86 91 82 76 57 79 73 74 75 74 78 75 80 66 69 75 67 68 73 88 91 83 93 85 79 67
11 6 9 10 11 13 14 16 15 13 15 14 18 22 31 35 41 44 49 49 51 60 69 80 90 81 83 65 69 74 70 77 75 74 75 84 89 65 90 74 70 72 74 87 83 80 72 88 71
10 9 8 10 10 16 15 16 16 14 15 14 17 22 29 34 38 42 46 47 50 56 66 76 85 58 58 55 49 71 78 76 74 78 75 80 84 86 87 90 72 68 87 88 91 84 76 75 66
12 12 15 14 13 15 12 14 15 11 10 12 12 15 26 32 37 39 46 49 49 54 62 72 84 72 55 55 52 52 58 66 81 87 86 77 75 74 78 73 66 80 68 80 79 83 88 65 55
14 11 11 16 11 10 11 15 13 10 10 10 11 11 19 30 35 36 42 47 52 53 59 65 73 55 51 52 48 50 53 73 85 85 79 83 73 72 80 88 64 60 68 65 73 88 82 76 45
14 14 8 8 10 10 8 10 9 10 10 10 10 11 12 24 32 36 37 43 50 56 60 63 52 37 43 43 43 45 48 53 79 76 77 81 81 74 85 89 58 71 59 59 72 78 75 68 45
10 10 11 9 15 16 9 10 11 11 12 11 11 10 11 17 27 31 35 37 43 51 57 65 53 28 27 37 42 44 45 47 50 59 61 65 78 67 80 82 71 75 62 57 64 82 80 52 50
12 12 11 9 9 11 11 8 7 9 11 11 10 11 11 14 19 24 28 34 37 44 53 61 69 62 41 32 31 36 40 43 44 50 52 53 56 63 59 65 58 65 71 57 61 65 88 48 46
9 11 11 12 16 11 10 7 6 7 7 10 9 10 10 11 14 17 20 26 33 39 45 51 59 66 50 32 30 30 33 36 40 41 44 46 49 52 54 59 62 60 70 62 58 54 84 63 54

GFSSGP_850_rhum_030.txt.gz
RH
73 86 98 95 99 97 79 81 67 49 40 41 44 53 48 53 56 76 68 74 70 60 60 59 66 66 68 70 57 53 49 48 53 62 76 74 76 71 62 61 60 64 66 66 63 65 68 68 70
94 99 98 95 96 92 90 54 57 43 35 36 40 42 52 69 68 84 82 78 62 60 68 63 62 66 71 75 60 51 46 49 54 71 73 74 57 56 64 69 64 62 64 67 64 66 69 73 75
83 95 95 85 91 89 73 68 48 35 37 40 44 50 59 72 72 78 63 63 56 63 84 60 57 68 75 76 54 48 46 49 56 69 67 63 68 67 68 62 62 64 63 63 66 71 74 75 77
91 94 86 87 77 59 42 38 38 33 38 40 46 57 72 74 78 75 54 53 60 82 79 59 60 73 83 56 50 45 47 47 60 67 63 63 63 64 64 57 63 68 68 70 70 62 59 59 67
88 67 79 76 61 45 30 32 40 41 33 44 52 63 80 78 85 74 64 71 78 84 81 61 65 70 73 53 46 44 44 46 53 61 64 66 65 64 61 59 70 67 66 64 62 61 60 58 58
79 75 78 64 46 29 26 29 31 39 37 46 57 64 74 83 88 89 90 80 82 88 85 57 63 73 57 50 43 42 42 50 53 60 66 66 66 59 56 63 67 66 64 63 60 59 54 55 57
81 94 85 70 55 28 29 31 30 35 29 44 54 63 77 81 85 85 79 80 66 75 82 62 70 63 52 47 44 41 42 48 55 62 62 62 58 60 55 62 64 63 61 62 59 48 44 56 54
52 91 86 76 47 52 23 27 31 32 34 41 56 64 76 81 80 77 83 76 75 63 85 92 77 52 50 46 43 41 42 47 54 58 62 65 66 66 64 67 61 62 61 59 58 52 50 52 58
48 60 65 61 39 43 21 28 33 31 33 37 47 60 72 73 74 79 74 81 63 63 73 83 88 85 82 55 39 41 44 44 46 56 67 85 88 69 69 77 61 65 66 62 64 66 70 59 62
36 91 70 42 40 34 23 21 25 27 29 38 52 62 66 74 72 71 81 75 72 62 63 70 77 84 81 83 41 42 43 55 63 85 52 76 86 76 77 59 61 65 68 65 65 76 79 72 63
28 59 37 34 33 20 22 19 22 23 29 41 53 58 62 72 69 73 76 70 70 58 56 62 67 74 68 72 46 70 70 74 75 82 75 88 94 82 79 78 75 73 78 68 76 76 90 72 62
25 49 54 39 32 16 28 30 20 25 27 37 50 54 59 66 64 69 73 71 64 55 52 57 63 69 66 68 60 70 67 69 68 68 68 96 75 90 81 77 88 84 94 83 80 81 73 76 66
20 36 34 36 30 14 27 49 34 33 25 35 46 50 51 57 60 60 69 65 62 56 50 56 64 55 64 72 62 61 60 59 61 69 59 85 72 83 78 86 79 81 71 54 84 77 60 78 57
18 18 25 30 30 15 14 27 32 30 24 34 42 47 46 48 51 54 60 60 58 56 50 52 62 60 67 69 65 63 57 56 61 62 64 76 93 85 73 82 85 78 73 77 84 69 53 75 68
16 19 17 18 17 14 13 14 19 26 25 30 39 44 44 44 42 45 52 49 51 46 49 52 59 65 64 69 74 64 63 64 56 63 64 61 81 84 72 76 85 85 87 72 72 63 67 67 59
18 16 23 18 16 14 13 16 20 27 24 29 35 40 42 42 42 43 43 44 48 48 47 58 65 76 68 70 79 72 69 63 62 60 63 61 61 87 69 79 77 67 82 68 69 65 76 60 66
19 22 20 20 15 14 12 15 12 25 23 30 31 36 39 42 41 43 43 45 47 49 52 57 58 67 73 82 80 75 72 68 62 61 62 64 55 58 87 75 72 76 75 78 71 65 71 56 53
23 20 17 20 16 13 13 14 15 19 42 27 32 32 36 39 40 43 44 45 48 52 55 58 61 68 71 71 82 83 78 71 66 63 60 61 62 61 61 79 86 79 80 84 71 73 64 55 50
17 16 14 12 12 14 13 15 17 24 43 42 28 32 32 35 37 42 44 45 48 55 58 61 67 68 74 79 81 87 73 76 71 65 61 62 64 65 66 82 82 81 69 83 62 62 68 58 54
17 16 13 10 9 10 13 13 14 24 46 44 30 47 32 32 35 39 44 44 47 54 62 63 65 70 78 77 79 76 77 72 71 66 65 64 68 80 70 70 75 90 76 75 58 82 70 59 58
17 17 14 12 9 9 13 14 14 17 17 18 23 35 28 32 34 37 43 43 46 54 59 65 69 74 79 81 82 78 74 69 67 66 66 68 72 72 78 80 72 90 80 79 61 63 70 64 50
16 13 12 12 11 13 10 17 18 14 14 15 17 22 25 30 32 36 41 43 46 51 60 66 70 72 75 78 82 81 74 70 68 66 68 69 71 79 84 83 73 75 80 80 76 62 68 72 65
10 7 10 10 11 11 11 14 13 14 15 14 16 21 36 27 31 36 39 43 45 49 62 70 68 73 77 77 86 79 77 74 64 65 66 67 70 71 74 90 80 66 69 86 81 73 69 63 72
6 6 7 7 9 15 12 13 15 13 16 12 14 15 21 24 29 35 38 41 44 48 58 71 70 73 74 80 76 87 76 72 66 63 64 65 70 76 76 85 83 77 65 87 86 73 58 71 66
7 8 12 13 12 14 11 13 14 11 13 12 11 12 15 22 25 33 39 40 43 46 55 65 69 70 71 71 70 78 84 69 66 64 62 70 69 75 76 68 84 80 67 74 80 73 65 54 67
8 8 12 20 14 11 9 13 12 9 8 10 10 11 13 17 22 30 37 40 43 44 51 61 67 64 65 68 66 65 77 81 59 65 65 65 68 67 71 70 67 63 62 68 81 70 78 76 51
10 11 7 9 8 8 7 8 7 8 8 8 8 10 12 14 17 26 32 39 43 42 48 55 65 62 63 59 68 48 58 70 46 64 68 69 64 64 62 62 64 67 71 63 69 78 69 81 78
8 8 11 9 17 15 9 11 10 11 10 10 10 9 10 12 15 23 30 37 41 41 45 52 60 61 45 49 48 44 32 41 44 42 63 64 73 60 64 62 63 65 70 74 78 69 68 81 79
9 10 10 8 9 12 13 8 7 12 11 11 10 9 10 13 16 20 28 34 39 42 44 50 57 65 66 52 33 36 42 36 36 45 44 58 64 77 59 78 70 66 67 64 77 73 69 64 75
8 10 11 13 18 10 11 9 6 8 9 9 9 9 10 10 16 18 24 30 37 41 43 48 55 64 64 57 56 48 39 33 28 32 36 40 57 56 75 63 81 75 72 58 60 57 64 80 73

GFSSGP_850_rhum_036.txt.gz
RH
69 70 92 100 100 98 90 77 79 71 70 57 58 60 64 78 70 82 85 74 67 71 67 62 56 52 48 48 54 48 55 56 60 60 58 65 60 61 62 62 61 60 63 64 63 64 65 49 54
77 85 95 99 99 94 84 84 84 63 60 59 62 64 67 88 97 96 85 73 60 70 65 64 57 50 51 50 49 50 60 63 67 51 58 72 64 58 57 65 63 64 64 64 67 72 61 52 66
80 87 93 96 94 87 90 86 72 53 58 54 63 67 72 97 99 87 77 67 60 67 72 63 59 53 52 49 49 51 59 62 59 58 60 59 57 60 61 61 65 66 68 65 61 72 57 48 64
87 99 92 96 87 72 64 63 58 55 58 58 65 70 79 99 86 80 71 60 61 65 68 62 59 53 48 47 48 50 58 64 61 57 62 61 56 62 62 64 66 61 59 60 62 64 57 60 70
95 87 92 91 83 72 63 55 60 62 64 60 62 78 90 84 78 70 68 60 55 63 64 59 58 57 47 46 45 49 64 63 62 60 62 58 60 63 61 61 61 62 60 59 62 61 59 70 79
86 79 88 88 76 64 60 60 77 69 68 72 73 80 95 79 64 65 63 62 54 59 65 61 60 67 46 45 45 49 64 63 67 65 59 56 63 63 62 63 64 61 52 53 62 63 64 68 77
80 82 84 81 82 71 63 60 68 68 61 64 63 87 98 89 63 58 65 65 60 61 60 62 61 57 45 44 46 51 57 60 58 54 54 52 62 64 61 62 63 57 47 49 55 56 61 68 75
72 78 75 74 77 87 73 73 63 62 66 69 64 88 90 81 63 61 85 79 78 84 60 60 54 47 42 42 41 51 57 58 58 52 54 52 58 65 62 63 62 55 51 51 56 59 62 75 74
78 81 82 70 77 84 83 60 62 64 68 63 68 76 65 65 60 87 96 97 91 81 59 55 50 44 40 39 40 52 53 57 59 65 60 60 59 59 63 66 64 58 60 66 70 63 64 67 71
73 89 71 56 56 57 87 69 69 63 64 72 85 77 65 56 71 84 92 92 80 80 63 49 45 40 39 37 37 47 50 55 57 65 66 67 54 55 59 67 66 62 65 68 67 72 79 68 71
70 84 62 55 53 43 48 56 60 68 77 77 89 85 72 59 70 82 89 85 83 68 57 49 41 38 36 36 37 42 55 65 52 61 70 72 65 66 59 65 72 68 70 69 63 64 61 60 62
61 60 55 48 40 37 37 50 57 54 66 74 62 74 70 76 81 81 84 87 82 66 49 44 39 35 34 34 38 57 60 62 56 65 64 72 78 72 74 75 75 70 77 76 68 59 57 60 61
51 48 46 43 39 36 34 42 40 50 61 76 81 82 79 76 76 78 79 78 71 67 50 37 38 34 34 33 46 64 65 68 71 66 67 68 75 78 73 72 74 73 70 76 73 61 64 60 62
38 41 37 35 34 34 36 35 42 68 74 79 76 77 79 79 80 74 68 73 73 70 64 38 40 34 34 38 52 63 65 68 72 71 59 68 67 79 72 68 73 70 73 72 72 58 55 57 62
30 39 33 35 32 33 34 37 54 68 75 76 78 79 79 79 79 69 72 69 73 69 60 44 49 42 48 59 52 63 68 67 68 74 66 62 64 71 77 70 73 73 68 71 66 68 57 50 49
33 35 46 34 29 31 34 45 52 66 69 73 75 74 75 75 68 69 64 64 72 66 60 58 58 50 53 59 58 64 70 62 62 67 69 67 65 63 75 74 70 77 72 70 72 70 64 57 54
31 42 41 34 32 30 36 38 54 64 68 71 72 71 72 73 68 65 64 60 67 69 62 60 62 56 53 67 53 62 70 65 67 64 65 63 64 57 66 73 73 72 72 68 65 68 59 62 58
37 43 37 36 25 32 36 34 58 60 63 70 71 70 70 72 71 62 60 56 60 61 63 63 62 59 57 56 58 59 67 61 62 61 64 65 63 53 61 71 75 73 76 70 65 64 60 55 56
28 33 36 28 22 21 26 40 59 54 57 63 71 69 66 66 61 59 59 57 57 59 63 59 62 60 58 59 60 54 66 59 63 65 69 67 63 61 58 64 73 72 72 71 68 74 56 54 56
24 28 33 28 24 23 26 41 49 52 55 56 61 64 64 63 64 61 60 55 53 57 59 59 59 59 60 61 58 55 52 54 63 66 74 72 65 63 63 60 65 75 73 71 67 60 55 56 55
24 27 27 32 25 20 20 45 41 45 52 56 57 55 55 53 53 60 61 57 52 53 58 60 57 54 58 61 59 55 51 52 56 64 70 70 70 65 64 62 68 75 75 75 74 63 57 53 55
28 20 21 23 27 34 18 44 61 55 56 51 48 53 51 52 49 52 59 59 60 55 56 55 53 55 58 57 57 61 49 49 52 56 65 69 70 73 68 62 64 67 76 80 73 64 63 53 55
24 19 20 21 27 27 25 26 64 56 62 56 49 50 48 49 48 48 50 54 56 56 56 50 48 50 54 56 56 54 64 52 53 65 70 69 67 74 70 70 62 72 69 79 78 62 65 59 57
20 22 23 23 27 37 26 24 26 64 55 47 41 46 42 51 48 46 46 46 49 48 49 50 51 52 53 55 57 55 62 63 58 67 75 75 66 66 69 72 64 77 73 70 73 79 63 66 70
24 31 39 38 34 34 22 24 20 39 38 40 40 40 44 48 46 45 49 48 50 50 48 50 51 52 54 56 59 59 56 61 56 66 75 76 70 68 70 72 71 66 76 70 64 79 58 64 68
28 27 41 48 37 28 19 23 19 15 26 26 37 36 47 47 47 45 46 47 48 48 48 49 50 52 54 56 59 59 57 60 60 61 69 72 72 68 67 70 73 72 69 74 64 71 72 63 62
26 30 21 21 20 22 18 13 10 11 11 22 37 42 45 46 47 42 45 48 49 47 46 48 50 52 54 56 59 62 62 61 56 52 62 63 65 69 67 68 71 70 72 65 65 60 69 71 63
21 17 22 23 24 26 22 18 13 11 10 13 32 38 43 48 44 41 46 48 48 46 43 45 48 49 52 54 57 61 64 63 54 54 56 57 58 64 66 70 71 70 70 69 67 63 58 70 68
23 18 16 18 23 23 26 16 12 12 14 10 27 29 39 44 40 39 44 47 45 47 48 46 47 50 53 53 53 57 61 65 65 55 51 54 52 62 69 73 72 70 68 68 71 69 66 57 60
18 18 15 16 21 25 25 16 12 10 10 10 11 34 37 38 40 41 41 44 49 50 52 48 46 50 49 45 50 52 56 62 64 56 46 48 49 59 71 72 72 72 73 70 68 69 69 66 59

GFSSGP_850_rhum_042.txt.gz
RH
79 62 74 97 97 98 94 85 73 85 89 71 57 56 68 85 76 86 89 75 77 64 60 63 54 64 53 59 72 54 57 76 78 79 76 72 72 76 68 59 58 59 64 71 71 56 57 49 71
64 74 97 98 100 96 85 80 78 74 71 73 62 70 75 95 96 96 87 76 72 60 59 60 57 71 65 72 53 50 73 78 78 68 68 69 75 72 58 59 64 68 74 76 72 54 62 69 71
66 90 100 100 90 86 88 85 84 73 71 67 73 77 90 97 98 90 78 75 68 60 57 53 60 72 70 56 54 59 59 62 67 64 70 75 77 70 64 65 65 66 70 74 65 57 76 75 79
91 100 98 100 88 73 72 76 74 82 84 78 79 90 91 94 99 87 74 70 68 62 58 48 60 63 63 60 71 65 53 67 77 79 75 77 73 64 67 63 57 58 70 77 51 55 78 75 78
98 97 97 94 82 66 66 85 85 75 83 74 77 94 99 100 94 83 70 70 63 60 51 52 72 52 52 58 60 57 72 78 65 69 82 68 65 66 59 59 58 61 62 58 55 63 73 80 80
98 92 94 86 77 65 68 79 84 72 83 79 86 92 99 97 88 76 70 66 58 53 51 72 71 50 53 58 72 60 66 77 63 62 62 61 60 60 60 57 57 66 63 59 62 69 73 74 80
96 88 81 81 82 76 72 76 75 82 81 74 81 87 100 99 84 73 66 63 58 60 64 79 52 72 59 76 63 72 61 73 69 64 63 61 63 63 57 52 53 66 66 65 69 72 74 72 70
88 77 80 84 83 85 70 77 83 76 74 74 70 94 96 100 80 74 72 66 60 62 88 59 48 50 46 69 68 73 69 60 58 66 64 59 64 68 56 52 57 58 60 66 72 74 75 78 74
79 86 88 72 72 70 78 71 78 74 69 69 73 73 92 89 74 78 81 74 70 64 66 64 47 46 48 57 66 62 57 57 58 60 58 58 61 66 61 57 60 68 70 66 68 70 71 74 75
86 88 73 53 60 64 64 72 70 71 68 80 83 75 76 84 73 78 80 78 82 68 60 55 46 43 47 54 59 60 55 53 54 54 59 58 62 67 66 62 68 73 74 71 69 71 72 74 73
86 91 60 48 60 54 61 69 72 68 73 77 92 84 81 86 74 73 72 67 61 56 53 54 45 42 43 52 58 59 60 68 63 61 58 57 59 66 67 65 69 76 76 74 70 65 64 66 66
88 76 65 57 52 59 62 62 67 67 65 63 66 59 76 78 73 65 63 60 58 57 47 50 45 41 40 52 54 56 58 63 62 65 56 57 57 66 69 68 72 73 75 76 71 64 59 51 53
80 71 64 61 56 56 52 56 58 66 67 67 68 73 81 74 78 65 58 56 56 55 48 45 44 40 38 46 50 58 55 62 65 69 69 74 68 67 73 74 69 73 73 71 71 64 59 56 55
51 55 57 54 53 50 51 53 55 65 73 74 75 80 81 71 68 67 64 63 62 55 47 45 41 39 38 38 45 61 60 67 66 66 71 72 69 70 74 75 74 70 71 74 73 68 59 55 50
45 45 39 36 41 49 40 62 63 69 75 77 81 79 77 77 79 61 58 63 56 51 49 44 38 37 36 36 42 62 73 73 67 65 70 68 73 72 73 74 78 72 72 68 67 63 60 56 57
36 36 50 38 36 35 40 59 66 78 76 77 77 73 74 82 83 75 72 65 60 51 52 44 38 36 34 36 58 64 71 71 73 73 66 68 69 72 75 75 75 69 63 64 65 65 62 62 66
33 57 50 44 36 38 42 54 78 85 81 77 73 71 72 82 89 88 71 72 61 52 45 42 37 33 33 36 59 67 68 69 69 72 72 70 70 74 73 74 75 72 67 65 71 69 66 59 61
45 41 44 45 34 42 47 50 82 82 84 80 76 72 70 78 87 89 80 73 68 60 47 38 35 32 33 36 56 61 66 68 66 69 67 71 72 73 73 72 74 75 65 68 69 64 62 60 58
34 40 43 37 30 44 48 50 85 81 79 83 84 79 74 76 78 84 83 73 70 64 55 48 43 34 34 33 57 60 65 67 67 63 63 69 71 72 68 68 69 71 73 70 67 68 58 60 55
30 29 34 32 28 37 41 48 77 80 78 79 82 83 79 78 79 81 81 81 73 70 60 53 56 38 38 38 46 57 60 64 68 67 66 64 70 68 66 70 68 70 72 75 75 71 65 56 56
28 35 30 33 27 28 36 45 76 76 74 76 77 79 80 80 78 79 79 74 78 68 59 55 59 39 50 48 56 59 60 66 71 69 65 66 71 70 68 69 72 68 73 76 75 66 58 57 57
35 25 27 26 31 40 33 53 70 82 80 75 76 78 78 77 77 75 76 79 75 67 60 57 57 52 55 58 57 60 60 60 63 67 66 67 68 70 70 70 71 71 69 75 80 70 58 60 58
23 23 27 27 33 32 30 40 55 78 91 81 74 75 75 74 73 73 69 68 71 73 63 58 60 55 54 57 60 61 60 60 60 61 66 64 68 69 70 70 72 72 68 76 82 72 65 58 56
23 26 31 31 37 43 34 33 41 87 75 73 67 71 72 72 70 66 59 68 70 69 65 60 58 59 53 54 60 64 61 60 61 62 60 60 61 67 67 68 74 75 74 74 77 80 64 66 59
30 31 55 53 53 45 34 34 36 34 60 59 62 61 66 71 67 66 64 66 67 64 65 56 55 54 55 54 54 59 62 59 60 59 51 46 50 50 61 64 70 73 74 71 79 76 72 62 65
32 35 55 62 57 39 36 45 35 22 38 51 52 52 58 63 68 63 66 62 62 59 58 50 49 51 52 56 53 56 60 60 59 62 56 44 38 41 55 62 65 70 76 70 80 73 67 77 70
36 40 33 44 38 48 30 30 20 22 24 43 46 49 52 57 61 63 62 63 61 60 56 55 48 48 48 51 53 54 57 58 57 59 60 55 43 45 55 65 69 69 73 78 74 77 66 65 76
31 30 43 49 55 48 40 28 34 25 29 32 41 43 47 51 54 57 59 59 58 56 56 58 55 51 49 49 52 54 55 52 54 58 61 60 55 52 54 62 68 69 71 74 77 77 71 66 63
31 38 38 35 45 47 39 33 25 25 22 28 29 42 39 45 47 48 50 53 52 56 55 54 56 52 54 51 51 52 54 52 53 55 59 62 58 56 50 59 65 69 71 72 75 78 74 66 61
58 35 41 42 46 42 41 33 15 18 20 19 17 30 31 35 40 40 41 46 50 52 54 52 52 52 51 49 50 51 51 51 52 54 56 62 58 54 49 52 57 61 66 70 74 75 75 72 68

GFSSGP_850_rhum_045.txt.gz
RH
76 65 75 94 90 90 76 69 68 75 65 70 54 54 54 66 61 72 94 78 75 65 59 59 65 65 63 68 62 69 80 57 58 66 74 70 73 75 79 80 85 81 80 79 65 79 51 72 72
67 68 85 96 95 90 71 65 68 68 60 67 59 68 71 74 94 93 94 80 62 53 69 85 72 54 63 70 73 70 75 77 77 76 73 72 72 69 81 79 75 71 72 75 54 66 71 64 67
63 79 98 98 93 83 72 73 79 69 72 60 66 74 82 90 96 95 83 75 54 52 67 81 69 62 75 62 74 75 74 75 72 71 71 72 78 73 76 73 72 79 75 77 55 68 70 74 80
74 98 99 100 82 67 72 80 77 71 84 80 74 74 93 97 98 85 77 71 57 53 86 72 63 69 62 74 72 59 63 68 66 66 72 78 73 73 69 60 61 72 79 47 56 72 70 73 75
94 98 96 82 71 63 60 71 81 72 76 88 78 85 99 100 91 85 88 75 75 88 91 73 61 69 58 76 61 62 64 77 77 78 70 68 69 62 58 59 62 68 56 51 69 74 80 80 77
96 91 88 77 63 62 64 71 71 71 82 81 82 86 98 97 93 95 93 86 77 82 93 84 62 70 68 64 57 74 75 64 74 73 83 76 59 58 57 59 60 59 57 65 70 72 74 79 76
88 82 70 63 71 70 64 71 69 74 73 72 79 76 99 96 95 94 95 90 91 90 93 82 56 74 72 76 62 71 70 60 62 72 58 58 62 58 54 55 60 62 65 68 70 75 72 73 74
92 62 65 64 64 69 62 72 88 81 71 76 75 82 97 100 98 98 98 95 94 91 95 80 69 77 78 68 67 65 73 71 68 64 59 62 62 57 54 57 59 64 70 75 75 74 76 67 64
81 76 75 58 59 58 67 65 82 75 74 68 74 78 88 98 99 97 98 97 94 95 96 71 84 61 74 78 75 71 69 67 66 61 58 62 59 56 58 62 66 71 70 72 72 73 75 74 68
76 76 62 46 43 51 64 63 70 70 66 78 82 82 99 100 97 96 96 96 92 96 96 88 56 47 63 87 81 75 67 75 64 58 60 62 59 59 57 65 71 72 72 69 69 70 68 71 86
69 68 54 43 47 53 62 64 69 63 64 71 80 91 100 99 98 97 95 93 89 94 94 66 48 50 54 66 59 57 55 55 55 58 58 61 64 63 59 66 74 75 76 78 71 67 64 64 68
74 67 62 58 49 51 55 59 57 61 57 66 69 88 95 91 90 90 88 90 93 79 70 55 47 47 54 58 58 55 60 62 59 58 58 58 63 67 64 66 72 76 75 72 69 62 57 54 61
68 64 61 60 54 52 52 50 51 57 68 71 80 89 88 85 86 87 85 89 90 68 50 50 44 43 51 56 57 59 67 65 66 60 60 60 60 69 72 73 76 76 77 72 66 61 56 57 57
43 58 56 52 49 49 48 43 50 60 73 79 84 85 82 80 82 88 89 87 62 49 42 44 42 41 48 52 54 57 59 64 66 71 73 75 71 74 77 78 77 77 76 75 70 61 58 49 48
43 49 39 39 37 41 41 44 51 66 73 78 81 82 80 78 80 84 86 81 49 43 41 41 40 40 41 47 54 59 66 68 66 71 73 75 71 69 74 78 80 77 71 70 66 60 56 53 59
26 30 37 34 37 36 36 43 45 70 70 74 77 79 79 77 75 82 83 76 56 47 44 40 40 39 38 39 54 65 71 69 67 69 73 74 75 71 73 74 74 72 68 70 61 60 57 57 62
30 19 28 28 32 34 35 39 52 68 66 71 75 75 74 74 76 81 84 82 60 48 44 42 38 37 36 37 44 66 74 74 74 74 70 74 75 73 75 76 73 70 68 69 66 60 58 61 60
25 23 34 28 32 33 38 36 58 69 63 66 70 69 69 70 74 79 84 87 69 49 54 43 37 37 36 37 56 66 70 69 71 72 70 70 72 73 75 71 72 78 69 70 71 63 61 57 61
28 32 24 33 28 34 35 35 53 68 69 67 67 66 65 66 69 78 83 85 84 61 58 53 38 35 37 35 49 64 65 64 66 69 67 68 71 70 70 70 70 72 67 66 66 66 62 59 54
21 30 30 28 28 33 34 35 34 60 65 68 66 64 63 64 68 77 82 83 87 70 57 55 43 34 34 34 48 58 58 62 67 64 64 65 69 69 69 68 74 75 73 71 69 69 65 59 55
22 21 28 28 24 25 29 33 32 54 60 66 68 65 63 61 64 74 80 83 84 87 64 56 43 35 33 33 36 52 57 63 67 67 67 66 66 69 69 70 74 70 78 75 73 65 67 58 56
18 15 21 27 29 32 28 43 34 34 60 61 64 69 67 65 65 67 76 81 81 83 62 59 46 45 43 33 36 37 48 58 60 61 65 63 66 71 70 70 72 74 74 77 76 68 55 58 58
18 15 16 16 27 31 29 36 32 39 48 55 58 62 65 68 67 67 71 77 77 83 64 66 64 47 57 42 41 39 49 53 53 57 65 66 66 67 69 70 72 76 72 77 79 76 64 58 58
17 18 19 17 16 26 32 33 31 33 44 45 49 58 62 66 68 70 70 74 78 79 76 59 62 54 57 45 51 52 52 55 58 61 63 65 67 65 67 68 69 74 74 72 74 79 69 63 58
22 25 31 31 30 21 17 32 30 24 32 33 41 54 60 64 67 68 71 72 78 78 81 67 62 59 58 52 55 58 58 59 59 59 60 62 62 61 59 65 66 68 72 71 72 75 78 72 66
26 25 28 35 28 16 16 32 28 21 20 30 35 42 55 62 64 66 67 70 74 66 61 65 64 61 58 58 53 54 56 60 61 59 59 60 60 54 51 51 57 62 69 71 68 75 76 74 72
24 31 20 23 31 27 14 17 20 20 20 19 30 39 50 57 60 62 65 67 64 61 49 55 57 54 56 54 54 52 51 55 58 58 57 60 61 57 46 45 58 60 67 73 72 71 74 73 69
31 19 33 29 36 33 22 20 18 22 22 21 21 31 41 48 56 59 63 64 59 46 46 48 50 48 47 49 50 50 50 52 56 58 57 57 62 59 47 44 56 64 67 71 74 77 76 75 71
26 30 26 26 29 28 26 21 16 17 23 21 22 22 31 41 49 54 58 60 54 57 54 47 48 49 48 47 48 50 50 52 54 56 56 56 60 61 54 49 50 62 63 68 72 74 76 77 72
34 50 28 33 41 32 29 21 16 15 16 16 16 19 23 35 41 46 53 60 61 63 58 49 48 50 48 48 48 48 49 49 52 54 55 54 58 62 58 54 48 56 60 64 70 72 73 72 70